Вернуться в каталог

STARLINK-4085

АктивенСвязьVLEO
NORAD 53262·PAYLOAD·🇺🇸 United States

Запущен Jul 24, 2022 с Cape Canaveral Space Force Station

Loading…

Ближайшие Пролёты (ближайшие 24 часа)

TLE

СвежийSource: CelesTrak SupGP

Эпоха: Sep 14, 2026, 21:48 UTC

1 53262C 22086W   26257.90881944  .00044283  00000+0  13438-2 0  2579
2 53262  53.1584  52.0065 0001139  79.2734 262.7198 15.33526098    18

Отслеживайте STARLINK-4085 в реальном времени с AllMySat

Download on the App Store